Location: Le Domaine
(47.0333°N, 76.5361°W)
Time: 01:14:29
(UTC-05:00)

S-56A Canister/Altair - Visible Passes

Search period start: 18 November 2019 00:00
Search period end: 28 November 2019 00:00
Orbit: 634 x 2498 km, 38.9° (Epoch: 17 November)

Date Brightness Start Highest point End Pass type
(mag) Time Alt. Az. Time Alt. Az. Time Alt. Az.
18 Nov 9.9 16:51:19 10° SW 16:59:35 30° SSE 17:05:31 10° ESE visible
18 Nov 8.6 18:55:46 10° WSW 19:03:19 41° S 19:04:25 38° SSE visible
18 Nov 10.5 21:01:04 10° WSW 21:01:50 13° WSW 21:01:50 13° WSW visible
19 Nov 9.0 18:22:25 10° WSW 18:30:38 42° S 18:33:31 28° SE visible
19 Nov 9.9 20:27:52 10° WSW 20:30:56 22° WSW 20:30:56 22° WSW visible
20 Nov 9.2 17:49:01 10° WSW 17:57:54 43° S 18:02:36 17° ESE visible
20 Nov 9.2 19:54:34 10° W 20:00:02 34° SW 20:00:02 34° SW visible
21 Nov 9.4 17:15:34 10° WSW 17:25:06 44° S 17:31:34 10° ESE visible
21 Nov 8.8 19:21:13 10° WSW 19:28:47 41° SSW 19:29:08 41° S visible
22 Nov 9.7 16:42:04 10° SW 16:52:15 44° S 16:59:10 10° E visible
22 Nov 8.9 18:47:47 10° WSW 18:56:07 44° S 18:58:16 34° SSE visible
22 Nov 10.4 20:53:59 10° W 20:55:41 15° WSW 20:55:41 15° WSW visible
23 Nov 9.1 18:14:17 10° WSW 18:23:24 47° S 18:27:24 23° SE visible
23 Nov 9.9 20:20:32 10° W 20:24:50 23° SW 20:24:50 23° SW visible
24 Nov 9.3 17:40:43 10° WSW 17:50:37 49° S 17:56:34 13° ESE visible
24 Nov 9.4 19:47:03 10° W 19:53:59 30° SSW 19:54:00 30° SSW visible
25 Nov 9.5 17:07:06 10° WSW 17:17:45 51° S 17:24:51 10° ESE visible
25 Nov 9.2 19:13:30 10° W 19:21:22 35° SSW 19:23:13 30° S visible
26 Nov 9.5 18:39:55 10° W 18:48:43 39° SSW 18:52:28 23° SSE visible
26 Nov 10.5 20:47:44 10° WSW 20:49:54 13° SW 20:49:54 13° SW visible
27 Nov 9.6 18:06:18 10° W 18:15:58 44° SSW 18:21:46 14° SE visible
27 Nov 10.2 20:13:41 10° W 20:18:38 18° SW 20:19:13 17° SW visible
